Regional Weather Roundup
Issued by NWS Upton, NY

Current Version | Previous Version | Text Only | Print | Product List | Glossary On
Versions: 1 2 3 4 5 6 7 8 9 10 11 12 13 14 15 16 17 18 19 20 21 22 23 24 25 26 27 28 29 30 31 32 33 34 35 36 37 38 39 40 41 42 43 44 45 46 47 48 49 50
000 ASUS41 KOKX 011404 RWROKX REGIONAL WEATHER ROUNDUP NATIONAL WEATHER SERVICE NEW YORK NY 1000 AM EDT SAT AUG 01 2015 NOTE: "FAIR" INDICATES FEW OR NO CLOUDS BELOW 12,000 FEET WITH NO SIGNIFICANT WEATHER AND/OR OBSTRUCTIONS TO VISIBILITY. NYZ071-072-176-178-NJZ106-104-011500- NEW YORK CITY METRO AREA CITY SKY/WX TMP DP RH WIND PRES REMARKS CENTRAL PARK MOSUNNY 81 60 48 W6 29.83S LAGUARDIA APRT PTSUNNY 84 59 42 W10 29.79S KENNEDY INTL PTSUNNY 81 66 60 SW14 29.81S NEWARK/LIBERTY PTSUNNY 83 61 47 W14 29.81R BRNX BOT. GARD N/A 82 59 44 W23 29.82S TETERBORO MOSUNNY 84 60 44 W7 29.79S $$ NYZ177-179-078>081-011500- LONG ISLAND NEW YORK CITY SKY/WX TMP DP RH WIND PRES REMARKS FARMINGDALE SUNNY 85 63 47 SW7 29.80S ISLIP MOSUNNY 85 61 44 SW12 29.78S SHIRLEY SUNNY 86 61 42 SW9 29.79F WESTHAMPTON SUNNY 85 66 53 SW6 29.81S MONTAUK POINT N/A 83 65 54 W6 29.80S $$ NYZ052-065-067-011500- HUDSON VALLEY CITY SKY/WX TMP DP RH WIND PRES REMARKS WHITE PLAINS MOSUNNY 80 62 54 W9 29.81R NEWBURGH NOT AVBL MONTGOMERY SUNNY 80 64 58 W6 29.80F POUGHKEEPSIE SUNNY 80 62 54 VRB6 29.78S ALBANY MOSUNNY 77 61 57 W10 29.78R $$ NJZ001-105-106-008-010-013-015-019>022-104-011500- NEW JERSEY CITY SKY/WX TMP DP RH WIND PRES REMARKS NEWARK/LIBERTY PTSUNNY 83 61 47 W14 29.81R TETERBORO MOSUNNY 84 60 44 W7 29.79S CALDWELL PTSUNNY 80 60 50 NW9 29.81S MORRISTOWN PTSUNNY 82 64 54 SW12 29.82R SOMERVILLE CLOUDY 78 63 59 VRB3 29.81S SUSSEX SUNNY 77 63 61 SW8 29.82F ANDOVER N/A 76 65 68 S7 29.83F TRENTON PTSUNNY 80 62 54 W12 29.84S MILLVILLE SUNNY 84 65 52 W12 29.86F ATLANTIC CITY SUNNY 84 66 54 W9 29.85F WRIGHTSTOWN NOT AVBL TOMS RIVER N/A 82 64 54 W12 29.84F BELMAR SUNNY 81 63 54 W10 29.84S $$ PAZ047>061-062-071-011500- EASTERN PENNSYLVANIA CITY SKY/WX TMP DP RH WIND PRES REMARKS PHILADELPHIA PTSUNNY 83 61 47 W10 29.85F ALLENTOWN MOSUNNY 78 65 63 W8 29.84S SCRANTON MOSUNNY 77 62 59 VRB3 29.85R $$ CTZ002-004>006-009-010-012-RIZ004-006-007-MAZ004-011-015-011500- SOUTHERN NEW ENGLAND IN CT CITY SKY/WX TMP DP RH WIND PRES REMARKS BRADLEY INTL MOSUNNY 80 63 55 N5 29.76F HARTFORD SUNNY 81 63 54 SE5 29.76F DANBURY MOSUNNY 78 62 57 W12G17 29.81R WTRBRY/OXFORD MOSUNNY 75 63 64 NW5 29.83S BRIDGEPORT SUNNY 80 65 59 SW13 29.78F MERIDEN SUNNY 83 61 47 NW5 29.77F NEW HAVEN MOSUNNY 78 65 63 S10 29.78F CHESTER FAIR 79 64 61 SW7 29.80F GROTON MOSUNNY 78 66 66 SW8 29.78S WILLIMANTIC SUNNY 81 61 50 W7 29.78S IN RI CITY SKY/WX TMP DP RH WIND PRES REMARKS PROVIDENCE SUNNY 84 65 52 SW7 29.77S BLOCK ISLAND N/A 79 68 69 W12 29.81R WESTERLY SUNNY 80 66 62 SW7 29.79S IN MA CITY SKY/WX TMP DP RH WIND PRES REMARKS BOSTON SUNNY 84 59 42 W9 29.75 WORCESTER MOSUNNY 74 60 61 W10 29.80S WESTFIELD MOSUNNY 76 62 62 CALM 29.77F PROVINCETOWN MOSUNNY 79 63 57 SW12 29.76S NANTUCKET SUNNY 76 70 82 S9 29.80S $$ ANZ330-335-338-340-345-350-353-355-011500- COASTAL MARINE OBSERVATIONS STATION/POSITION TIME SKY/WX TEMP WIND PRES VSBY WAVE AIR SEA DIR/SP/G HT/PER (UTC) (F) (DEG/KT/KT) (MB) (MI) (FT/S) NY HARB ENTRANCE 1250 76 76 240/ 10/ 12 1009.0 3/ 9 4S FIRE IS NOT AVBL 20S FIRE ISLAND 1250 76 75 250/ 10/ 12 1009.2 4/10 GREAT SOUTH BAY 1315 76 80 250/ 10/ 14 N/A 23SW MTP 1350 75 74 250/ 12/ 16 1008.7 4/10 HUDSON CANYON NOT AVBL KINGS POINT 1300 78 72 270/ 5/ 5 1008.3 EXECUTION ROCKS 1300 75 190/ 4/ 6 N/A CENTRAL LI SOUND NOT AVBL EASTERN LI SOUND 1300 73 69 290/ 4/ 6 N/A ROBBINS REEF 1300 78 260/ 12/ 13 1008.0 $$ >>>>>>>>>>>>>>>>>>>>>>>>>>>> KEY <<<<<<<<<<<<<<<<<<<<<<<<<<< > < > SKY/WX - SKY CONDITION/PRESENT WEATHER < > TMP - TEMPERATURE IN FAHRENHEIT < > DP - DEWPOINT IN FAHRENHEIT < > RH - RELATIVE HUMIDITY IN PERCENT < > WIND - DIRECTION AND SPEED IN MPH < > PRES - MEAN SEA LEVEL PRESSURE IN INCHES OF HG < > WCI - WIND CHILL INDEX < > VSB - VISIBILITY IN MILES < > HX - HEAT INDEX < > TC - TEMPERATURE IN CELSIUS < > VRB - VARIABLE WIND DIRECTION < > < >>>>>>>>>>>>>>>>>>>>>>>>>>>> KEY <<<<<<<<<<<<<<<<<<<<<<<<<<<

USA.gov is the U.S. government's official web portal to all federal, state and local government web resources and services.